Location: Newark
(25.4800°N, 85.7200°E)
Time: 19:47:00
(UTC+00:00)

S-56A Canister/Altair - Visible Passes

Search period start: 18 August 2019 00:00
Search period end: 28 August 2019 00:00
Orbit: 633 x 2499 km, 38.9° (Epoch: 17 August)

Date Brightness Start Highest point End Pass type
(mag) Time Alt. Az. Time Alt. Az. Time Alt. Az.
18 Aug 7.6 14:17:21 10° SW 14:22:25 43° SE 14:22:30 43° SE visible
18 Aug 9.3 20:36:30 37° NNE 20:36:30 37° NNE 20:43:44 10° E visible
18 Aug 8.6 22:34:05 10° WNW 22:40:57 72° SW 22:51:37 10° SE visible
19 Aug 8.0 13:44:37 10° SSW 13:49:51 36° SE 13:52:26 21° E visible
19 Aug 9.9 15:49:11 10° W 15:49:55 14° W 15:49:55 14° W visible
19 Aug 10.0 20:06:27 23° ENE 20:06:27 23° ENE 20:10:01 10° E visible
19 Aug 8.4 22:03:57 26° WNW 22:08:04 81° SSW 22:18:02 10° SE visible
20 Aug 8.4 13:11:54 10° SSW 13:17:16 30° SE 13:21:28 10° E visible
20 Aug 8.6 15:16:13 10° W 15:19:45 36° WNW 15:19:45 36° WNW visible
20 Aug 8.2 21:34:01 64° NW 21:35:15 89° NNE 21:44:29 10° ESE visible
21 Aug 7.8 14:43:11 10° WSW 14:48:25 54° NNW 14:49:27 44° NNE visible
21 Aug 8.7 21:04:11 55° ESE 21:04:11 55° ESE 21:10:56 10° ESE visible
21 Aug 9.5 23:01:42 13° W 23:07:10 30° SW 23:15:47 10° SSE visible
22 Aug 7.7 14:10:06 10° WSW 14:15:52 67° NNW 14:19:02 20° NE visible
22 Aug 10.0 20:34:24 23° ESE 20:34:24 23° ESE 20:37:27 10° ESE visible
22 Aug 9.0 22:31:55 28° WSW 22:34:14 33° SW 22:42:38 10° SSE visible
23 Aug 7.6 13:36:59 10° WSW 13:43:18 82° NNW 13:48:00 10° NE visible
23 Aug 9.8 15:43:52 10° WNW 15:45:58 18° NW 15:45:58 18° NW visible
23 Aug 8.9 22:02:08 36° SSW 22:02:08 36° SSW 22:09:29 10° SSE visible
24 Aug 7.7 13:03:49 10° SW 13:10:42 84° SSE 13:15:37 10° ENE visible
24 Aug 9.2 15:10:41 10° WNW 15:14:44 23° NNW 15:15:21 22° N visible
24 Aug 9.7 21:32:20 25° SSE 21:32:20 25° SSE 21:36:21 10° SSE visible
25 Aug 9.2 14:37:24 10° W 14:42:04 27° NNW 14:44:38 17° NNE visible
25 Aug 10.5 21:02:29 12° SE 21:02:29 12° SE 21:03:12 10° SE visible
25 Aug 10.2 23:00:00 10° SW 23:00:43 10° SW 23:01:44 10° SSW visible
26 Aug 9.1 14:04:02 10° W 14:09:25 32° NNW 14:13:41 10° NE visible
26 Aug 10.4 22:30:03 10° SSW 22:30:03 10° SSW 22:30:23 10° SSW visible
27 Aug 9.0 13:30:35 10° W 13:36:46 39° NNW 13:41:23 10° NE visible
27 Aug 9.9 15:38:35 10° NW 15:40:27 15° NNW 15:40:27 15° NNW visible
